Regional Weather Roundup
Issued by NWS

Home | Current Version | Previous Version | Text Only | Print | Product List | Glossary Off
Versions: 1 2 3 4 5 6 7 8 9 10 11 12 13 14 15 16 17 18 19 20 21 22 23 24 25 26 27 28 29 30 31 32 33 34 35 36 37 38 39 40 41 42 43 44 45 46 47 48 49 50

001
ASUS43 KOAX 311702
RWRNE

WEATHER ROUNDUP FOR NEBRASKA
NATIONAL WEATHER SERVICE OMAHA NE
1200 PM CDT TUE MAY 31 2016

NOTES: SATELLITE DATA IS BEING USED TO AUGMENT CLOUD COVER ABOVE
       12000 FEET.
       "FAIR" INDICATES FEW OR NO CLOUDS BELOW 12,000 FEET WITH NO
       SIGNIFICANT WEATHER AND/OR OBSTRUCTIONS TO VISIBILITY.

  * THESE STATIONS DO NOT REPORT WEATHER SUCH AS RAIN...SNOW OR FOG.

NEZ001>004-019>022-054>056-311800-
NEBRASKA PANHANDLE

CITY           SKY/WX    TMP DP  RH WIND       PRES   REMARKS
SCOTTSBLUFF    CLOUDY    61  39  44 W9G17     30.11F
ALLIANCE       SUNNY     62  40  44 W10G18    30.08F
CHADRON        MOSUNNY   67  35  30 W23G30    30.04F
SIDNEY         CLOUDY    53  42  66 N8        30.13F
$$

NEZ057>060-069>072-079>082-311800-
SOUTHWEST NEBRASKA

CITY           SKY/WX    TMP DP  RH WIND       PRES   REMARKS
NORTH PLATTE   PTSUNNY   64  46  52 NW8       30.09F
IMPERIAL       SUNNY     61  44  53 N10       30.10F
LEXINGTON      MOSUNNY   65  48  54 N10G16    30.06F
MCCOOK         SUNNY     66  47  50 N10G20    30.06F
$$

NEZ005>010-023>029-035>040-094-311800-
NORTH CENTRAL NEBRASKA

CITY           SKY/WX    TMP DP  RH WIND       PRES   REMARKS
VALENTINE      SUNNY     68  40  35 W20G31    29.99S
AINSWORTH      CLOUDY    64  44  48 SW14      30.01F
BROKEN BOW     CLOUDY    64  44  48 NW9       30.06R
ORD            PTSUNNY   68  43  40 NW13      30.02S
$$

NEZ041-046>049-061>064-073>077-083>087-311800-
SOUTH CENTRAL NEBRASKA

CITY           SKY/WX    TMP DP  RH WIND       PRES   REMARKS
GRAND ISLAND   SUNNY     67  51  56 N12       30.02S
HASTINGS       PTSUNNY   67  53  61 N14       30.02R
KEARNEY *      SUNNY     66  48  52 N14       30.04F
YORK           CLOUDY    66  55  68 N12       30.00R
$$

NEZ011>018-030>034-042>045-311800-
NORTHEAST NEBRASKA

CITY           SKY/WX    TMP DP  RH WIND       PRES   REMARKS
NORFOLK        MOSUNNY   67  48  50 N15       29.98F
FREMONT        PTSUNNY   68  58  70 NW9       29.97S
TEKAMAH        CLOUDY    69  59  70 NW12      29.95S
$$

NEZ050>053-065>068-078-088>093-311800-
SOUTHEAST NEBRASKA

CITY           SKY/WX    TMP DP  RH WIND       PRES   REMARKS
LINCOLN        CLOUDY    71  58  63 N10       29.97S
OMAHA EPPLEY   CLOUDY    69  61  75 N14       29.94R
FALLS CITY     LGT RAIN  75  61  61 CALM      29.92F
PLATTSMOUTH    CLOUDY    70  62  77 NW12      29.94S
$$

NEZ044-045-051>053-067-311800-
OMAHA AREA

CITY           SKY/WX    TMP DP  RH WIND       PRES   REMARKS
OMAHA EPPLEY   CLOUDY    69  61  75 N14       29.94R
FREMONT        PTSUNNY   68  58  70 NW9       29.97S
OFFUTT AFB     CLOUDY    69  61  77 NW9       29.93F
PLATTSMOUTH    CLOUDY    70  62  77 NW12      29.94S
$$




USA.gov is the U.S. government's official web portal to all federal, state and local government web resources and services.